Time,TemperatureF,DewpointF,PressureIn,WindDirection,WindDirectionDegrees,WindSpeedMPH,WindSpeedGustMPH,Humidity,HourlyPrecipIn,Conditions,Clouds,dailyrainin,SoftwareType,DateUTC
2013-06-19 00:00:00,51.4,47.3,30.08,NW,326,0.0,0.0,86,0.00,,SCT,0.00,VWS V14.00,2013-06-19 04:00:00,
2013-06-19 00:01:00,53.4,42.8,30.11,NNE,31,1.6,7.5,67,0.00,,SKC,0.00,VWS V14.00,2013-06-19 04:01:00,
2013-06-19 00:06:00,53.4,43.5,30.11,North,8,1.2,7.5,69,0.00,,SKC,0.00,VWS V14.00,2013-06-19 04:06:00,
2013-06-19 00:11:00,53.3,45.1,30.11,NW,319,0.0,7.5,74,0.00,,SKC,0.00,VWS V14.00,2013-06-19 04:11:00,
2013-06-19 00:16:00,52.7,44.3,30.11,NNW,328,0.4,7.5,73,0.00,,SKC,0.00,VWS V14.00,2013-06-19 04:16:00,
2013-06-19 00:21:00,52.3,43.8,30.12,North,4,0.0,7.5,73,0.00,,SKC,0.00,VWS V14.00,2013-06-19 04:21:00,
2013-06-19 00:26:00,52.2,44.2,30.12,North,4,0.0,7.5,74,0.00,,SKC,0.00,VWS V14.00,2013-06-19 04:26:00,
2013-06-19 00:30:00,52.1,44.1,30.12,North,4,0.0,7.5,74,0.00,,SKC,0.00,VWS V14.00,2013-06-19 04:30:00,
2013-06-19 00:31:00,51.8,43.9,30.12,NNW,338,0.0,0.6,74,0.00,,SKC,0.00,VWS V14.00,2013-06-19 04:31:00,
2013-06-19 00:36:00,51.7,44.0,30.11,NNE,32,0.0,2.1,75,0.00,,SKC,0.00,VWS V14.00,2013-06-19 04:36:00,
2013-06-19 00:41:00,51.4,43.3,30.12,NNE,13,0.0,2.5,74,0.00,,SKC,0.00,VWS V14.00,2013-06-19 04:41:00,
2013-06-19 00:46:00,51.3,43.1,30.12,NNE,17,0.0,2.5,74,0.00,,SKC,0.00,VWS V14.00,2013-06-19 04:46:00,
2013-06-19 00:51:00,51.1,43.2,30.12,NNE,17,0.0,2.5,74,0.00,,SKC,0.00,VWS V14.00,2013-06-19 04:51:00,
2013-06-19 00:56:00,50.9,43.7,30.12,NNE,17,0.0,2.5,76,0.00,,SKC,0.00,VWS V14.00,2013-06-19 04:56:00,
2013-06-19 01:00:00,50.9,43.7,30.12,NNE,17,0.0,2.5,76,0.00,,SKC,0.00,VWS V14.00,2013-06-19 05:00:00,
2013-06-19 01:02:00,50.5,43.6,30.12,NNE,17,0.0,0.0,77,0.00,,SKC,0.00,VWS V14.00,2013-06-19 05:02:00,
2013-06-19 01:07:00,50.1,43.2,30.12,NNE,17,0.0,0.0,77,0.00,,SKC,0.00,VWS V14.00,2013-06-19 05:07:00,
2013-06-19 01:12:00,49.7,43.3,30.12,NNE,17,0.0,0.0,78,0.00,,SKC,0.00,VWS V14.00,2013-06-19 05:12:00,
2013-06-19 01:17:00,49.4,42.8,30.13,NNE,17,0.0,0.0,78,0.00,,SKC,0.00,VWS V14.00,2013-06-19 05:17:00,
2013-06-19 01:22:00,49.2,42.7,30.13,NNE,17,0.0,0.0,78,0.00,,SKC,0.00,VWS V14.00,2013-06-19 05:22:00,
2013-06-19 01:27:00,48.8,42.8,30.13,NNE,17,0.0,0.0,80,0.00,,SKC,0.00,VWS V14.00,2013-06-19 05:27:00,
2013-06-19 01:30:00,48.9,42.9,30.12,NNE,17,0.0,0.0,80,0.00,,SKC,0.00,VWS V14.00,2013-06-19 05:30:00,
2013-06-19 01:32:00,48.6,42.8,30.13,NNE,17,0.0,0.0,80,0.00,,SKC,0.00,VWS V14.00,2013-06-19 05:32:00,
2013-06-19 01:37:00,48.2,42.6,30.13,NNE,17,0.0,0.0,81,0.00,,SKC,0.00,VWS V14.00,2013-06-19 05:37:00,
2013-06-19 01:42:00,47.9,42.5,30.13,NNE,17,0.0,0.0,82,0.00,,SKC,0.00,VWS V14.00,2013-06-19 05:42:00,
2013-06-19 01:47:00,47.5,42.5,30.13,NNE,17,0.0,0.0,82,0.00,,SKC,0.00,VWS V14.00,2013-06-19 05:47:00,
2013-06-19 01:52:00,47.3,42.6,30.13,NNE,17,0.0,0.0,84,0.00,,SKC,0.00,VWS V14.00,2013-06-19 05:52:00,
2013-06-19 01:57:00,47.0,42.5,30.13,NNE,17,0.0,0.0,84,0.00,,SKC,0.00,VWS V14.00,2013-06-19 05:57:00,
2013-06-19 02:00:00,47.0,42.5,30.12,NNE,17,0.0,0.0,84,0.00,,SKC,0.00,VWS V14.00,2013-06-19 06:00:00,
2013-06-19 02:02:00,46.6,42.2,30.13,NNE,17,0.0,0.0,85,0.00,,SKC,0.00,VWS V14.00,2013-06-19 06:02:00,
2013-06-19 02:07:00,46.5,42.3,30.13,NNE,17,0.0,0.0,85,0.00,,SKC,0.00,VWS V14.00,2013-06-19 06:07:00,
2013-06-19 02:12:00,46.1,42.2,30.13,NNE,17,0.0,0.0,86,0.00,,SKC,0.00,VWS V14.00,2013-06-19 06:12:00,
2013-06-19 02:17:00,45.9,42.1,30.13,NNE,17,0.0,0.0,87,0.00,,SKC,0.00,VWS V14.00,2013-06-19 06:17:00,
2013-06-19 02:22:00,45.6,41.9,30.13,NNE,17,0.0,0.0,87,0.00,,SKC,0.00,VWS V14.00,2013-06-19 06:22:00,
2013-06-19 02:27:00,45.4,41.9,30.13,NNE,17,0.0,0.0,88,0.00,,SKC,0.00,VWS V14.00,2013-06-19 06:27:00,
2013-06-19 02:30:00,45.4,41.9,30.13,NNE,17,0.0,0.0,87,0.00,,SKC,0.00,VWS V14.00,2013-06-19 06:30:00,
2013-06-19 02:32:00,45.2,41.8,30.13,NNE,17,0.0,0.0,88,0.00,,SKC,0.00,VWS V14.00,2013-06-19 06:32:00,
2013-06-19 02:37:00,45.0,41.7,30.13,NNE,17,0.0,0.0,88,0.00,,SKC,0.00,VWS V14.00,2013-06-19 06:37:00,
2013-06-19 02:42:00,44.8,41.7,30.13,NNE,17,0.0,0.0,89,0.00,,SKC,0.00,VWS V14.00,2013-06-19 06:42:00,
2013-06-19 02:47:00,44.5,41.5,30.13,NNE,17,0.0,0.0,89,0.00,,SKC,0.00,VWS V14.00,2013-06-19 06:47:00,
2013-06-19 02:52:00,44.3,41.4,30.13,NNE,17,0.0,0.0,89,0.00,,SKC,0.00,VWS V14.00,2013-06-19 06:52:00,
2013-06-19 02:57:00,44.1,41.3,30.13,NNE,17,0.0,0.0,90,0.00,,SKC,0.00,VWS V14.00,2013-06-19 06:57:00,
2013-06-19 03:00:00,44.2,41.4,30.13,NNE,17,0.0,0.0,90,0.00,,SKC,0.00,VWS V14.00,2013-06-19 07:00:00,
2013-06-19 03:02:00,43.9,41.1,30.13,NNE,17,0.0,0.0,90,0.00,,SKC,0.00,VWS V14.00,2013-06-19 07:02:00,
2013-06-19 03:07:00,43.8,41.1,30.13,NNE,17,0.0,0.0,90,0.00,,SKC,0.00,VWS V14.00,2013-06-19 07:07:00,
2013-06-19 03:12:00,43.5,40.9,30.14,NNE,17,0.0,0.0,90,0.00,,SKC,0.00,VWS V14.00,2013-06-19 07:12:00,
2013-06-19 03:17:00,43.4,41.0,30.14,NNE,17,0.0,0.0,91,0.00,,SKC,0.00,VWS V14.00,2013-06-19 07:17:00,
2013-06-19 03:22:00,43.5,41.1,30.14,NNE,17,0.0,0.0,91,0.00,,SKC,0.00,VWS V14.00,2013-06-19 07:22:00,
2013-06-19 03:27:00,43.3,40.9,30.14,NNE,17,0.0,0.0,91,0.00,,SKC,0.00,VWS V14.00,2013-06-19 07:27:00,
2013-06-19 03:30:00,43.1,40.7,30.14,NNE,17,0.0,0.0,91,0.00,,SKC,0.00,VWS V14.00,2013-06-19 07:30:00,
2013-06-19 03:32:00,43.1,40.8,30.14,NNE,17,0.0,0.0,92,0.00,,SKC,0.00,VWS V14.00,2013-06-19 07:32:00,
2013-06-19 03:37:00,42.9,40.7,30.14,NNE,17,0.0,0.0,92,0.00,,SKC,0.00,VWS V14.00,2013-06-19 07:37:00,
2013-06-19 03:42:00,42.6,40.4,30.14,NNE,17,0.0,0.0,92,0.00,,SKC,0.00,VWS V14.00,2013-06-19 07:42:00,
2013-06-19 03:47:00,42.6,40.6,30.14,NNE,17,0.0,0.0,92,0.00,,SKC,0.00,VWS V14.00,2013-06-19 07:47:00,
2013-06-19 03:52:00,42.5,40.5,30.14,NNE,17,0.0,0.0,93,0.00,,SKC,0.00,VWS V14.00,2013-06-19 07:52:00,
2013-06-19 03:57:00,42.4,40.5,30.14,NNE,17,0.0,0.0,93,0.00,,SKC,0.00,VWS V14.00,2013-06-19 07:57:00,
2013-06-19 04:00:00,42.3,40.4,30.14,NNE,17,0.0,0.0,93,0.00,,SKC,0.00,VWS V14.00,2013-06-19 08:00:00,
2013-06-19 04:02:00,42.3,40.4,30.14,NNE,17,0.0,0.0,93,0.00,,SKC,0.00,VWS V14.00,2013-06-19 08:02:00,
2013-06-19 04:07:00,42.1,40.2,30.14,NNE,17,0.0,0.0,93,0.00,,SKC,0.00,VWS V14.00,2013-06-19 08:07:00,
2013-06-19 04:12:00,42.0,40.2,30.14,NNE,17,0.0,0.0,93,0.00,,SKC,0.00,VWS V14.00,2013-06-19 08:12:00,
2013-06-19 04:17:00,41.9,40.1,30.15,NNE,17,0.0,0.0,93,0.00,,SKC,0.00,VWS V14.00,2013-06-19 08:17:00,
2013-06-19 04:22:00,41.8,40.0,30.14,NNE,17,0.0,0.0,93,0.00,,SKC,0.00,VWS V14.00,2013-06-19 08:22:00,
2013-06-19 04:27:00,41.7,40.0,30.15,NNE,17,0.0,0.0,94,0.00,,SKC,0.00,VWS V14.00,2013-06-19 08:27:00,
2013-06-19 04:30:00,41.8,40.1,30.15,NNE,17,0.0,0.0,94,0.00,,SKC,0.00,VWS V14.00,2013-06-19 08:30:00,
2013-06-19 04:32:00,41.5,39.8,30.15,NNE,17,0.0,0.0,94,0.00,,SKC,0.00,VWS V14.00,2013-06-19 08:32:00,
2013-06-19 04:37:00,41.5,39.8,30.15,NNE,17,0.0,0.0,94,0.00,,SKC,0.00,VWS V14.00,2013-06-19 08:37:00,
2013-06-19 04:42:00,41.4,39.8,30.15,NNE,17,0.0,0.0,94,0.00,,SKC,0.00,VWS V14.00,2013-06-19 08:42:00,
2013-06-19 04:47:00,41.2,39.6,30.15,NNE,17,0.0,0.0,94,0.00,,SKC,0.00,VWS V14.00,2013-06-19 08:47:00,
2013-06-19 04:52:00,41.3,39.8,30.15,NNE,17,0.0,0.0,94,0.00,,SKC,0.00,VWS V14.00,2013-06-19 08:52:00,
2013-06-19 04:57:00,41.3,39.8,30.15,NNE,17,0.0,0.0,94,0.00,,SKC,0.00,VWS V14.00,2013-06-19 08:57:00,
2013-06-19 05:00:00,41.3,39.8,30.15,NNE,17,0.0,0.0,94,0.00,,SKC,0.00,VWS V14.00,2013-06-19 09:00:00,
2013-06-19 05:02:00,41.3,39.8,30.15,NNE,17,0.0,0.0,94,0.00,,SKC,0.00,VWS V14.00,2013-06-19 09:02:00,
2013-06-19 05:07:00,41.3,39.8,30.15,NNE,17,0.0,0.0,94,0.00,,SKC,0.00,VWS V14.00,2013-06-19 09:07:00,
2013-06-19 05:12:00,41.2,39.8,30.16,NNE,17,0.0,0.0,95,0.00,,SKC,0.00,VWS V14.00,2013-06-19 09:12:00,
2013-06-19 05:17:00,41.2,39.8,30.16,NNE,17,0.0,0.0,95,0.00,,SKC,0.00,VWS V14.00,2013-06-19 09:17:00,
2013-06-19 05:22:00,41.0,39.6,30.16,NNE,17,0.0,0.0,95,0.00,,SKC,0.00,VWS V14.00,2013-06-19 09:22:00,
2013-06-19 05:27:00,40.9,39.5,30.16,NNE,17,0.0,0.0,95,0.00,,SKC,0.00,VWS V14.00,2013-06-19 09:27:00,
2013-06-19 05:30:00,41.0,39.6,30.16,NNE,17,0.0,0.0,95,0.00,,SKC,0.00,VWS V14.00,2013-06-19 09:30:00,
2013-06-19 05:32:00,40.8,39.4,30.16,NNE,17,0.0,0.0,95,0.00,,SKC,0.00,VWS V14.00,2013-06-19 09:32:00,
2013-06-19 05:37:00,40.6,39.3,30.17,NNE,17,0.0,0.0,95,0.00,,SKC,0.00,VWS V14.00,2013-06-19 09:37:00,
2013-06-19 05:42:00,40.7,39.4,30.17,NNE,17,0.0,0.0,95,0.00,,SKC,0.00,VWS V14.00,2013-06-19 09:42:00,
2013-06-19 05:47:00,40.6,39.3,30.17,NNE,17,0.0,0.0,95,0.00,,SKC,0.00,VWS V14.00,2013-06-19 09:47:00,
2013-06-19 05:52:00,40.7,39.4,30.17,NNE,17,0.0,0.0,95,0.00,,SKC,0.00,VWS V14.00,2013-06-19 09:52:00,
2013-06-19 05:57:00,40.8,39.5,30.17,NNE,17,0.0,0.0,95,0.00,,SKC,0.00,VWS V14.00,2013-06-19 09:57:00,
2013-06-19 06:00:00,40.9,39.6,30.17,NNE,17,0.0,0.0,95,0.00,,SKC,0.00,VWS V14.00,2013-06-19 10:00:00,
2013-06-19 06:02:00,40.8,39.5,30.17,NNE,17,0.0,0.0,95,0.00,,SKC,0.00,VWS V14.00,2013-06-19 10:02:00,
2013-06-19 06:07:00,41.0,39.8,30.17,NNE,17,0.0,0.0,95,0.00,,SKC,0.00,VWS V14.00,2013-06-19 10:07:00,
2013-06-19 06:12:00,41.8,40.6,30.17,NNE,17,0.0,0.0,95,0.00,,SKC,0.00,VWS V14.00,2013-06-19 10:12:00,
2013-06-19 06:17:00,42.1,40.9,30.18,NNE,17,0.0,0.0,95,0.00,,SKC,0.00,VWS V14.00,2013-06-19 10:17:00,
2013-06-19 06:22:00,42.2,40.9,30.18,NNE,17,0.0,0.0,95,0.00,,SKC,0.00,VWS V14.00,2013-06-19 10:22:00,
2013-06-19 06:27:00,42.4,41.2,30.18,NNE,17,0.0,0.0,95,0.00,,SKC,0.00,VWS V14.00,2013-06-19 10:27:00,
2013-06-19 06:30:00,42.4,41.2,30.18,NNE,17,0.0,0.0,95,0.00,,SKC,0.00,VWS V14.00,2013-06-19 10:30:00,
2013-06-19 06:32:00,42.7,41.5,30.18,NNE,17,0.0,0.0,95,0.00,,SKC,0.00,VWS V14.00,2013-06-19 10:32:00,
2013-06-19 06:37:00,43.2,42.0,30.18,NNE,17,0.0,0.0,95,0.00,,SKC,0.00,VWS V14.00,2013-06-19 10:37:00,
2013-06-19 06:42:00,43.9,42.7,30.18,NNE,17,0.0,0.0,95,0.00,,SKC,0.00,VWS V14.00,2013-06-19 10:42:00,
2013-06-19 06:47:00,44.8,43.6,30.18,NNE,17,0.0,0.0,95,0.00,,SKC,0.00,VWS V14.00,2013-06-19 10:47:00,
2013-06-19 06:52:00,45.4,44.1,30.19,NNE,17,0.0,0.0,95,0.00,,SKC,0.00,VWS V14.00,2013-06-19 10:52:00,
2013-06-19 06:57:00,45.8,44.6,30.19,NNE,17,0.0,0.0,95,0.00,,SKC,0.00,VWS V14.00,2013-06-19 10:57:00,
2013-06-19 07:00:00,45.7,44.5,30.19,NNE,17,0.0,0.0,95,0.00,,SKC,0.00,VWS V14.00,2013-06-19 11:00:00,
2013-06-19 07:02:00,46.1,44.9,30.19,NNE,17,0.0,0.0,95,0.00,,SKC,0.00,VWS V14.00,2013-06-19 11:02:00,
2013-06-19 07:07:00,46.8,45.6,30.19,NNE,17,0.0,0.0,96,0.00,,SKC,0.00,VWS V14.00,2013-06-19 11:07:00,
2013-06-19 07:12:00,47.2,45.9,30.19,NNE,20,0.0,3.4,95,0.00,,SKC,0.00,VWS V14.00,2013-06-19 11:12:00,
2013-06-19 07:17:00,47.4,45.8,30.20,NE,38,2.4,3.4,94,0.00,,SKC,0.00,VWS V14.00,2013-06-19 11:17:00,
2013-06-19 07:22:00,47.8,43.9,30.20,NNE,18,3.0,4.1,86,0.00,,SKC,0.00,VWS V14.00,2013-06-19 11:22:00,
2013-06-19 07:27:00,48.8,44.5,30.20,NNE,30,1.6,2.4,85,0.00,,SKC,0.00,VWS V14.00,2013-06-19 11:27:00,
2013-06-19 07:30:00,48.5,44.5,30.20,NNE,27,1.8,4.1,86,0.00,,SKC,0.00,VWS V14.00,2013-06-19 11:30:00,
2013-06-19 07:32:00,49.8,45.2,30.20,NE,44,3.0,3.6,84,0.00,,SKC,0.00,VWS V14.00,2013-06-19 11:32:00,
2013-06-19 07:37:00,50.7,45.6,30.20,NE,49,0.8,3.7,82,0.00,,SKC,0.00,VWS V14.00,2013-06-19 11:37:00,
2013-06-19 07:42:00,51.3,46.0,30.20,NE,49,0.0,3.7,82,0.00,,SKC,0.00,VWS V14.00,2013-06-19 11:42:00,
2013-06-19 07:47:00,51.8,43.7,30.20,North,11,3.4,6.0,74,0.00,,SKC,0.00,VWS V14.00,2013-06-19 11:47:00,
2013-06-19 07:52:00,51.9,45.1,30.20,NE,52,0.0,6.0,78,0.00,,SKC,0.00,VWS V14.00,2013-06-19 11:52:00,
2013-06-19 07:57:00,52.0,44.8,30.20,ENE,62,1.7,2.0,76,0.00,,SKC,0.00,VWS V14.00,2013-06-19 11:57:00,
2013-06-19 08:00:00,52.0,44.5,30.20,NE,48,1.1,6.0,76,0.00,,SKC,0.00,VWS V14.00,2013-06-19 12:00:00,
2013-06-19 08:03:00,52.4,45.0,30.21,SE,142,0.5,3.3,76,0.00,,SKC,0.00,VWS V14.00,2013-06-19 12:03:00,
2013-06-19 08:08:00,53.0,45.1,30.21,NE,44,0.7,4.0,74,0.00,,SKC,0.00,VWS V14.00,2013-06-19 12:08:00,
2013-06-19 08:26:00,54.0,44.1,30.21,NE,48,2.2,4.7,69,0.00,,SKC,0.00,VWS V14.00,2013-06-19 12:26:00,
2013-06-19 08:30:00,48.5,44.5,30.20,NNE,27,1.8,4.1,86,0.00,,SCT,0.00,VWS V14.00,2013-06-19 12:30:00,
2013-06-19 08:31:00,54.2,44.3,30.22,East,90,0.9,4.8,69,0.00,,SKC,0.00,VWS V14.00,2013-06-19 12:31:00,
2013-06-19 08:36:00,54.7,45.0,30.22,NNE,25,2.2,4.8,70,0.00,,SKC,0.00,VWS V14.00,2013-06-19 12:36:00,
2013-06-19 08:41:00,55.0,44.2,30.22,ENE,62,2.4,4.8,67,0.00,,SKC,0.00,VWS V14.00,2013-06-19 12:41:00,
2013-06-19 08:46:00,55.5,44.4,30.22,NE,38,2.4,4.8,66,0.00,,SKC,0.00,VWS V14.00,2013-06-19 12:46:00,
2013-06-19 08:51:00,55.6,44.5,30.22,NE,39,0.0,4.8,66,0.00,,SKC,0.00,VWS V14.00,2013-06-19 12:51:00,
2013-06-19 08:56:00,55.9,43.4,30.22,NNE,17,3.7,4.8,63,0.00,,SKC,0.00,VWS V14.00,2013-06-19 12:56:00,
2013-06-19 09:00:00,52.0,44.5,30.20,NE,48,1.1,6.0,76,0.00,,SCT,0.00,VWS V14.00,2013-06-19 13:00:00,
2013-06-19 09:01:00,56.0,44.4,30.22,NNE,14,1.7,4.6,65,0.00,,SKC,0.00,VWS V14.00,2013-06-19 13:01:00,
2013-06-19 09:06:00,56.3,46.0,30.22,North,6,2.3,4.6,68,0.00,,SKC,0.00,VWS V14.00,2013-06-19 13:06:00,
2013-06-19 09:11:00,56.6,45.0,30.22,NW,315,1.1,6.1,65,0.00,,SKC,0.00,VWS V14.00,2013-06-19 13:11:00,
2013-06-19 09:16:00,57.0,45.0,30.22,NNE,31,0.2,6.1,64,0.00,,SKC,0.00,VWS V14.00,2013-06-19 13:16:00,
2013-06-19 09:21:00,57.1,43.4,30.22,NNE,14,2.7,6.1,60,0.00,,SKC,0.00,VWS V14.00,2013-06-19 13:21:00,
2013-06-19 09:26:00,57.3,43.1,30.22,NNE,28,3.3,6.1,59,0.00,,SKC,0.00,VWS V14.00,2013-06-19 13:26:00,
2013-06-19 09:30:00,54.2,44.0,30.21,North,352,0.4,4.7,68,0.00,,SCT,0.00,VWS V14.00,2013-06-19 13:30:00,
2013-06-19 09:31:00,57.8,44.2,30.22,NNE,30,1.4,5.9,60,0.00,,SKC,0.00,VWS V14.00,2013-06-19 13:31:00,
2013-06-19 09:36:00,58.3,44.3,30.22,NNE,17,1.0,5.9,60,0.00,,SKC,0.00,VWS V14.00,2013-06-19 13:36:00,
2013-06-19 09:41:00,58.6,43.8,30.21,NNE,13,2.0,6.5,58,0.00,,SKC,0.00,VWS V14.00,2013-06-19 13:41:00,
2013-06-19 09:46:00,58.7,44.7,30.21,North,10,3.5,6.5,60,0.00,,SKC,0.00,VWS V14.00,2013-06-19 13:46:00,
2013-06-19 09:51:00,59.0,43.0,30.21,ENE,73,1.1,6.5,55,0.00,,SKC,0.00,VWS V14.00,2013-06-19 13:51:00,
2013-06-19 09:56:00,59.4,43.7,30.21,NE,38,2.8,6.5,56,0.00,,SKC,0.00,VWS V14.00,2013-06-19 13:56:00,
2013-06-19 10:00:00,55.9,44.4,30.22,North,11,1.0,4.8,65,0.00,,SCT,0.00,VWS V14.00,2013-06-19 14:00:00,
2013-06-19 10:01:00,59.8,44.2,30.21,ENE,70,3.0,7.8,56,0.00,,SKC,0.00,VWS V14.00,2013-06-19 14:01:00,
2013-06-19 10:06:00,60.1,41.9,30.21,ENE,58,2.3,7.8,51,0.00,,SKC,0.00,VWS V14.00,2013-06-19 14:06:00,
2013-06-19 10:11:00,60.2,41.0,30.21,NNE,25,4.6,7.8,49,0.00,,SKC,0.00,VWS V14.00,2013-06-19 14:11:00,
2013-06-19 10:16:00,59.9,41.5,30.21,NNE,30,1.3,8.3,51,0.00,,SKC,0.00,VWS V14.00,2013-06-19 14:16:00,
2013-06-19 10:21:00,60.2,42.8,30.21,North,11,2.3,8.3,52,0.00,,SKC,0.00,VWS V14.00,2013-06-19 14:21:00,
2013-06-19 10:26:00,60.5,41.3,30.21,NE,42,0.0,8.3,49,0.00,,SKC,0.00,VWS V14.00,2013-06-19 14:26:00,
2013-06-19 10:30:00,57.3,42.9,30.22,NNE,14,2.4,6.1,59,0.00,,SCT,0.00,VWS V14.00,2013-06-19 14:30:00,
2013-06-19 10:31:00,60.9,41.4,30.22,NNE,31,6.0,7.8,48,0.00,,SKC,0.00,VWS V14.00,2013-06-19 14:31:00,
2013-06-19 10:36:00,61.3,40.4,30.22,WNW,302,0.0,7.8,46,0.00,,SKC,0.00,VWS V14.00,2013-06-19 14:36:00,
2013-06-19 10:41:00,61.6,41.7,30.22,WNW,302,0.0,7.8,48,0.00,,SKC,0.00,VWS V14.00,2013-06-19 14:41:00,
2013-06-19 10:46:00,61.7,38.2,30.22,NNE,21,4.2,7.8,42,0.00,,SKC,0.00,VWS V14.00,2013-06-19 14:46:00,
2013-06-19 10:51:00,61.6,39.4,30.22,SSE,153,1.8,7.8,44,0.00,,SKC,0.00,VWS V14.00,2013-06-19 14:51:00,
2013-06-19 10:56:00,61.7,40.0,30.22,ENE,62,3.5,7.8,45,0.00,,SKC,0.00,VWS V14.00,2013-06-19 14:56:00,
2013-06-19 11:00:00,59.6,43.3,30.21,NE,42,3.9,6.5,55,0.00,,SCT,0.00,VWS V14.00,2013-06-19 15:00:00,
2013-06-19 11:01:00,61.8,41.2,30.22,NW,319,1.4,4.9,47,0.00,,SKC,0.00,VWS V14.00,2013-06-19 15:01:00,
2013-06-19 11:06:00,62.0,40.5,30.22,NE,51,2.7,5.0,45,0.00,,SKC,0.00,VWS V14.00,2013-06-19 15:06:00,
2013-06-19 11:11:00,62.0,41.3,30.22,NW,323,1.9,9.1,47,0.00,,SKC,0.00,VWS V14.00,2013-06-19 15:11:00,
2013-06-19 11:16:00,61.9,39.0,30.23,NNW,328,0.0,9.1,43,0.00,,SKC,0.00,VWS V14.00,2013-06-19 15:16:00,
2013-06-19 11:21:00,61.8,40.2,30.22,WNW,301,1.2,9.1,45,0.00,,SKC,0.00,VWS V14.00,2013-06-19 15:21:00,
2013-06-19 11:26:00,61.9,39.3,30.23,NNW,329,0.0,9.1,43,0.00,,SKC,0.00,VWS V14.00,2013-06-19 15:26:00,
2013-06-19 11:30:00,60.6,41.6,30.21,North,359,1.6,8.3,50,0.00,,SCT,0.00,VWS V14.00,2013-06-19 15:30:00,
2013-06-19 11:31:00,62.1,41.4,30.23,WNW,298,1.4,5.5,47,0.00,,SKC,0.00,VWS V14.00,2013-06-19 15:31:00,
2013-06-19 11:36:00,62.5,41.3,30.22,NNW,342,2.7,5.5,46,0.00,,SKC,0.00,VWS V14.00,2013-06-19 15:36:00,
2013-06-19 11:41:00,62.6,42.2,30.22,NNW,342,0.0,6.1,47,0.00,,SKC,0.00,VWS V14.00,2013-06-19 15:41:00,
2013-06-19 11:46:00,62.9,42.2,30.22,WNW,285,3.1,6.5,47,0.00,,SKC,0.00,VWS V14.00,2013-06-19 15:46:00,
2013-06-19 11:51:00,62.5,41.2,30.22,West,280,3.5,6.5,46,0.00,,SKC,0.00,VWS V14.00,2013-06-19 15:51:00,
2013-06-19 11:56:00,62.6,42.7,30.22,West,259,0.7,6.5,48,0.00,,SKC,0.00,VWS V14.00,2013-06-19 15:56:00,
2013-06-19 12:00:00,61.7,38.4,30.22,WSW,255,1.2,7.8,42,0.00,,SCT,0.00,VWS V14.00,2013-06-19 16:00:00,
2013-06-19 12:01:00,62.9,39.8,30.22,NNW,336,1.6,3.7,42,0.00,,SKC,0.00,VWS V14.00,2013-06-19 16:01:00,
2013-06-19 12:06:00,62.9,40.0,30.22,North,352,1.2,4.6,43,0.00,,SKC,0.00,VWS V14.00,2013-06-19 16:06:00,
2013-06-19 12:11:00,63.1,38.6,30.22,ENE,68,3.8,6.6,40,0.00,,SKC,0.00,VWS V14.00,2013-06-19 16:11:00,
2013-06-19 12:16:00,63.6,40.2,30.22,NE,39,0.0,6.6,42,0.00,,SKC,0.00,VWS V14.00,2013-06-19 16:16:00,
2013-06-19 12:21:00,63.8,43.5,30.22,WNW,290,3.4,6.6,48,0.00,,SKC,0.00,VWS V14.00,2013-06-19 16:21:00,
2013-06-19 12:26:00,63.8,40.2,30.22,NNW,332,1.5,9.1,42,0.00,,SKC,0.00,VWS V14.00,2013-06-19 16:26:00,
2013-06-19 12:30:00,61.9,39.3,30.23,North,357,1.1,9.1,43,0.00,,SCT,0.00,VWS V14.00,2013-06-19 16:30:00,
2013-06-19 12:31:00,63.6,41.7,30.22,North,1,1.2,5.9,45,0.00,,SKC,0.00,VWS V14.00,2013-06-19 16:31:00,
2013-06-19 12:36:00,64.0,40.7,30.22,SSE,160,2.7,5.9,42,0.00,,SKC,0.00,VWS V14.00,2013-06-19 16:36:00,
2013-06-19 12:41:00,64.3,38.8,30.22,NNW,339,3.4,5.9,39,0.00,,SKC,0.00,VWS V14.00,2013-06-19 16:41:00,
2013-06-19 12:46:00,64.2,38.2,30.22,NNE,30,2.3,5.9,38,0.00,,SKC,0.00,VWS V14.00,2013-06-19 16:46:00,
2013-06-19 12:51:00,64.3,37.8,30.22,NW,325,0.0,6.0,38,0.00,,SKC,0.00,VWS V14.00,2013-06-19 16:51:00,
2013-06-19 12:56:00,64.1,39.9,30.21,NE,38,1.6,6.5,41,0.00,,SKC,0.00,VWS V14.00,2013-06-19 16:56:00,
2013-06-19 13:00:00,62.6,42.6,30.22,SSW,207,0.9,6.5,48,0.00,,SCT,0.00,VWS V14.00,2013-06-19 17:00:00,
2013-06-19 13:01:00,64.7,41.3,30.21,NNW,339,3.5,6.6,42,0.00,,SKC,0.00,VWS V14.00,2013-06-19 17:01:00,
2013-06-19 13:06:00,65.0,40.0,30.21,WSW,246,0.0,6.6,40,0.00,,SKC,0.00,VWS V14.00,2013-06-19 17:06:00,
2013-06-19 13:11:00,65.2,41.2,30.21,NNE,30,5.8,8.0,41,0.00,,SKC,0.00,VWS V14.00,2013-06-19 17:11:00,
2013-06-19 13:16:00,64.7,40.8,30.21,NW,319,1.1,8.0,42,0.00,,SKC,0.00,VWS V14.00,2013-06-19 17:16:00,
2013-06-19 13:22:00,64.7,41.5,30.21,NW,305,5.1,8.0,43,0.00,,SKC,0.00,VWS V14.00,2013-06-19 17:22:00,
2013-06-19 13:27:00,64.8,40.2,30.21,ENE,68,0.8,8.0,40,0.00,,SKC,0.00,VWS V14.00,2013-06-19 17:27:00,
2013-06-19 13:30:00,63.7,40.1,30.22,NNW,340,1.7,9.1,42,0.00,,SCT,0.00,VWS V14.00,2013-06-19 17:30:00,
2013-06-19 13:32:00,64.8,41.0,30.21,NE,41,3.8,5.3,42,0.00,,SKC,0.00,VWS V14.00,2013-06-19 17:32:00,
2013-06-19 13:37:00,65.0,39.1,30.21,NW,309,0.0,7.0,38,0.00,,SKC,0.00,VWS V14.00,2013-06-19 17:37:00,
2013-06-19 13:42:00,65.4,41.4,30.20,East,84,0.0,7.0,42,0.00,,SKC,0.00,VWS V14.00,2013-06-19 17:42:00,
2013-06-19 13:47:00,65.3,42.0,30.20,NNE,30,3.0,8.5,43,0.00,,SKC,0.00,VWS V14.00,2013-06-19 17:47:00,
2013-06-19 13:52:00,65.2,40.5,30.20,North,4,3.4,8.5,40,0.00,,SKC,0.00,VWS V14.00,2013-06-19 17:52:00,
2013-06-19 13:57:00,65.2,40.4,30.20,ENE,60,2.9,8.5,40,0.00,,SKC,0.00,VWS V14.00,2013-06-19 17:57:00,
2013-06-19 14:00:00,64.1,39.9,30.21,NNE,17,1.1,6.5,41,0.00,,SCT,0.00,VWS V14.00,2013-06-19 18:00:00,
2013-06-19 14:02:00,65.5,42.0,30.21,WNW,297,4.8,8.1,42,0.00,,SKC,0.00,VWS V14.00,2013-06-19 18:02:00,
2013-06-19 14:07:00,65.3,41.5,30.20,West,262,4.4,8.1,42,0.00,,SKC,0.00,VWS V14.00,2013-06-19 18:07:00,
2013-06-19 14:12:00,65.4,40.2,30.20,North,10,4.7,8.1,40,0.00,,SKC,0.00,VWS V14.00,2013-06-19 18:12:00,
2013-06-19 14:17:00,65.8,39.8,30.20,West,276,1.1,8.1,38,0.00,,SKC,0.00,VWS V14.00,2013-06-19 18:17:00,
2013-06-19 14:22:00,66.2,44.7,30.20,WNW,283,4.1,8.1,46,0.00,,SKC,0.00,VWS V14.00,2013-06-19 18:22:00,
2013-06-19 14:27:00,66.0,43.5,30.20,North,352,1.1,1.6,44,0.00,,SKC,0.00,VWS V14.00,2013-06-19 18:27:00,
2013-06-19 14:30:00,64.8,40.2,30.21,ENE,68,0.8,8.0,40,0.00,,SCT,0.00,VWS V14.00,2013-06-19 18:30:00,
2013-06-19 14:32:00,65.6,39.3,30.20,NNE,22,2.1,5.8,38,0.00,,SKC,0.00,VWS V14.00,2013-06-19 18:32:00,
2013-06-19 14:37:00,65.3,39.0,30.20,NNE,17,0.0,5.8,38,0.00,,SKC,0.00,VWS V14.00,2013-06-19 18:37:00,
2013-06-19 14:42:00,65.6,42.4,30.20,NNE,15,6.0,6.0,43,0.00,,SKC,0.00,VWS V14.00,2013-06-19 18:42:00,
2013-06-19 14:47:00,65.7,39.3,30.20,NE,51,5.9,7.3,38,0.00,,SKC,0.00,VWS V14.00,2013-06-19 18:47:00,
2013-06-19 14:52:00,65.4,38.5,30.20,NNW,342,3.2,7.3,37,0.00,,SKC,0.00,VWS V14.00,2013-06-19 18:52:00,
2013-06-19 14:57:00,65.4,40.7,30.20,NNE,24,3.5,3.5,40,0.00,,SKC,0.00,VWS V14.00,2013-06-19 18:57:00,
2013-06-19 15:00:00,65.2,40.4,30.20,ENE,60,2.9,8.5,40,0.00,,SCT,0.00,VWS V14.00,2013-06-19 19:00:00,
2013-06-19 15:02:00,66.1,41.7,30.20,South,174,0.0,3.5,41,0.00,,SKC,0.00,VWS V14.00,2013-06-19 19:02:00,
2013-06-19 15:07:00,66.5,40.8,30.20,NNE,27,3.9,6.4,39,0.00,,SKC,0.00,VWS V14.00,2013-06-19 19:07:00,
2013-06-19 15:12:00,66.2,41.3,30.20,NNW,339,2.1,6.4,40,0.00,,SKC,0.00,VWS V14.00,2013-06-19 19:12:00,
2013-06-19 15:17:00,66.7,41.4,30.20,SSW,210,3.1,6.4,40,0.00,,SKC,0.00,VWS V14.00,2013-06-19 19:17:00,
2013-06-19 15:22:00,66.7,41.8,30.19,West,276,3.7,6.4,40,0.00,,SKC,0.00,VWS V14.00,2013-06-19 19:22:00,
2013-06-19 15:27:00,66.4,41.2,30.19,West,276,0.9,1.2,40,0.00,,SKC,0.00,VWS V14.00,2013-06-19 19:27:00,
2013-06-19 15:30:00,66.0,43.5,30.20,NNW,340,1.6,8.1,44,0.00,,SCT,0.00,VWS V14.00,2013-06-19 19:30:00,
2013-06-19 15:32:00,66.3,39.8,30.19,North,1,1.2,4.2,38,0.00,,SKC,0.00,VWS V14.00,2013-06-19 19:32:00,
2013-06-19 15:37:00,66.6,39.8,30.19,WNW,301,1.3,5.7,37,0.00,,SKC,0.00,VWS V14.00,2013-06-19 19:37:00,
2013-06-19 15:42:00,66.1,40.7,30.19,NW,305,1.0,7.7,39,0.00,,SKC,0.00,VWS V14.00,2013-06-19 19:42:00,
2013-06-19 15:47:00,66.3,38.9,30.19,NNW,335,0.6,7.7,36,0.00,,SKC,0.00,VWS V14.00,2013-06-19 19:47:00,
2013-06-19 15:52:00,66.6,42.2,30.19,NNE,13,2.3,7.7,41,0.00,,SKC,0.00,VWS V14.00,2013-06-19 19:52:00,
2013-06-19 15:57:00,66.9,39.6,30.19,NE,39,2.8,2.9,37,0.00,,SKC,0.00,VWS V14.00,2013-06-19 19:57:00,
2013-06-19 16:00:00,65.4,40.7,30.20,NE,51,2.5,7.3,40,0.00,,SCT,0.00,VWS V14.00,2013-06-19 20:00:00,
2013-06-19 16:02:00,66.9,40.8,30.19,NNW,342,0.8,3.7,38,0.00,,SKC,0.00,VWS V14.00,2013-06-19 20:02:00,
2013-06-19 16:07:00,67.0,39.3,30.19,South,186,3.4,4.3,36,0.00,,SKC,0.00,VWS V14.00,2013-06-19 20:07:00,
2013-06-19 16:12:00,67.3,40.2,30.19,NE,46,0.0,4.3,37,0.00,,SKC,0.00,VWS V14.00,2013-06-19 20:12:00,
2013-06-19 16:17:00,67.7,39.7,30.19,West,264,1.9,4.3,36,0.00,,SKC,0.00,VWS V14.00,2013-06-19 20:17:00,
2013-06-19 16:22:00,67.4,40.0,30.19,WNW,292,0.7,6.2,37,0.00,,SKC,0.00,VWS V14.00,2013-06-19 20:22:00,
2013-06-19 16:27:00,67.3,42.2,30.19,North,359,2.2,2.8,40,0.00,,SKC,0.00,VWS V14.00,2013-06-19 20:27:00,
2013-06-19 16:30:00,66.6,41.5,30.19,SW,236,1.2,6.4,40,0.00,,SCT,0.00,VWS V14.00,2013-06-19 20:30:00,
2013-06-19 16:32:00,67.2,39.3,30.19,NW,304,3.5,5.5,36,0.00,,SKC,0.00,VWS V14.00,2013-06-19 20:32:00,
2013-06-19 16:37:00,67.1,41.3,30.18,WNW,295,2.0,5.5,39,0.00,,SKC,0.00,VWS V14.00,2013-06-19 20:37:00,
2013-06-19 16:42:00,67.5,41.2,30.18,SSW,193,0.0,5.5,38,0.00,,SKC,0.00,VWS V14.00,2013-06-19 20:42:00,
2013-06-19 16:47:00,67.7,38.7,30.18,NE,41,0.7,5.5,34,0.00,,SKC,0.00,VWS V14.00,2013-06-19 20:47:00,
2013-06-19 16:52:00,68.0,40.4,30.18,West,278,2.9,5.5,36,0.00,,SKC,0.00,VWS V14.00,2013-06-19 20:52:00,
2013-06-19 16:57:00,67.9,41.0,30.18,NW,309,0.7,1.0,38,0.00,,SKC,0.00,VWS V14.00,2013-06-19 20:57:00,
2013-06-19 17:00:00,67.0,40.5,30.19,NNE,27,2.9,7.7,38,0.00,,SCT,0.00,VWS V14.00,2013-06-19 21:00:00,
2013-06-19 17:02:00,67.3,40.0,30.18,NE,56,2.4,7.8,37,0.00,,SKC,0.00,VWS V14.00,2013-06-19 21:02:00,
2013-06-19 17:07:00,66.9,41.4,30.18,NE,45,3.3,7.8,39,0.00,,SKC,0.00,VWS V14.00,2013-06-19 21:07:00,
2013-06-19 17:12:00,67.0,41.8,30.18,ENE,68,2.0,7.8,40,0.00,,SKC,0.00,VWS V14.00,2013-06-19 21:12:00,
2013-06-19 17:17:00,66.9,39.2,30.18,East,101,2.9,7.8,36,0.00,,SKC,0.00,VWS V14.00,2013-06-19 21:17:00,
2013-06-19 17:22:00,66.9,38.8,30.18,NE,41,2.4,7.8,36,0.00,,SKC,0.00,VWS V14.00,2013-06-19 21:22:00,
2013-06-19 17:27:00,67.0,39.7,30.18,East,83,0.0,1.2,37,0.00,,SKC,0.00,VWS V14.00,2013-06-19 21:27:00,
2013-06-19 17:30:00,67.2,42.1,30.19,NNW,333,1.6,6.2,40,0.00,,SCT,0.00,VWS V14.00,2013-06-19 21:30:00,
2013-06-19 17:32:00,67.2,40.9,30.18,ENE,69,2.3,3.1,38,0.00,,SKC,0.00,VWS V14.00,2013-06-19 21:32:00,
2013-06-19 17:37:00,67.2,40.1,30.18,East,89,0.0,3.1,37,0.00,,SKC,0.00,VWS V14.00,2013-06-19 21:37:00,
2013-06-19 17:42:00,67.7,41.5,30.18,ENE,68,0.0,3.1,38,0.00,,SKC,0.00,VWS V14.00,2013-06-19 21:42:00,
2013-06-19 17:47:00,67.4,40.9,30.18,NW,305,1.9,3.5,38,0.00,,SKC,0.00,VWS V14.00,2013-06-19 21:47:00,
2013-06-19 17:52:00,67.4,39.0,30.18,NNW,333,1.4,3.5,35,0.00,,SKC,0.00,VWS V14.00,2013-06-19 21:52:00,
2013-06-19 17:57:00,67.5,41.2,30.18,West,277,0.0,0.0,38,0.00,,SKC,0.00,VWS V14.00,2013-06-19 21:57:00,
2013-06-19 18:00:00,67.9,40.6,30.18,NNW,330,0.9,5.5,37,0.00,,SCT,0.00,VWS V14.00,2013-06-19 22:00:00,
2013-06-19 18:02:00,67.5,39.8,30.18,NE,49,1.1,3.5,36,0.00,,SKC,0.00,VWS V14.00,2013-06-19 22:02:00,
2013-06-19 18:07:00,67.2,39.5,30.18,North,350,0.0,4.2,36,0.00,,SKC,0.00,VWS V14.00,2013-06-19 22:07:00,
2013-06-19 18:12:00,67.1,39.3,30.18,NE,38,0.5,4.2,36,0.00,,SKC,0.00,VWS V14.00,2013-06-19 22:12:00,
2013-06-19 18:17:00,67.2,41.8,30.18,West,266,1.2,4.2,40,0.00,,SKC,0.00,VWS V14.00,2013-06-19 22:17:00,
2013-06-19 18:22:00,67.4,41.0,30.18,NW,307,1.9,4.2,38,0.00,,SKC,0.00,VWS V14.00,2013-06-19 22:22:00,
2013-06-19 18:27:00,67.3,39.6,30.18,WNW,290,0.0,0.7,36,0.00,,SKC,0.00,VWS V14.00,2013-06-19 22:27:00,
2013-06-19 18:30:00,67.1,39.6,30.18,North,6,1.1,7.8,36,0.00,,SCT,0.00,VWS V14.00,2013-06-19 22:30:00,
2013-06-19 18:32:00,67.6,40.1,30.18,WNW,290,0.0,0.7,36,0.00,,SKC,0.00,VWS V14.00,2013-06-19 22:32:00,
2013-06-19 18:37:00,67.7,40.2,30.18,WNW,290,0.0,0.7,36,0.00,,SKC,0.00,VWS V14.00,2013-06-19 22:37:00,
2013-06-19 18:42:00,67.8,40.3,30.18,West,259,0.0,0.7,37,0.00,,SKC,0.00,VWS V14.00,2013-06-19 22:42:00,
2013-06-19 18:47:00,67.6,40.7,30.18,South,187,0.0,3.0,37,0.00,,SKC,0.00,VWS V14.00,2013-06-19 22:47:00,
2013-06-19 18:52:00,67.5,41.5,30.18,South,187,0.0,3.0,39,0.00,,SKC,0.00,VWS V14.00,2013-06-19 22:52:00,
2013-06-19 18:57:00,67.3,45.3,30.19,West,270,0.0,0.0,45,0.00,,SKC,0.00,VWS V14.00,2013-06-19 22:57:00,
2013-06-19 19:00:00,67.4,40.6,30.18,West,277,0.0,3.5,38,0.00,,SCT,0.00,VWS V14.00,2013-06-19 23:00:00,
2013-06-19 19:02:00,67.0,41.1,30.19,West,270,0.0,0.0,39,0.00,,SKC,0.00,VWS V14.00,2013-06-19 23:02:00,
2013-06-19 19:07:00,66.9,40.8,30.19,West,270,0.0,0.0,38,0.00,,SKC,0.00,VWS V14.00,2013-06-19 23:07:00,
2013-06-19 19:12:00,66.9,40.7,30.19,West,270,0.0,0.0,38,0.00,,SKC,0.00,VWS V14.00,2013-06-19 23:12:00,
2013-06-19 19:17:00,66.8,45.5,30.19,West,270,0.0,0.0,46,0.00,,SKC,0.00,VWS V14.00,2013-06-19 23:17:00,
2013-06-19 19:22:00,66.4,47.6,30.19,West,270,0.0,0.0,51,0.00,,SKC,0.00,VWS V14.00,2013-06-19 23:22:00,
2013-06-19 19:27:00,66.1,43.7,30.19,West,270,0.0,0.0,44,0.00,,SKC,0.00,VWS V14.00,2013-06-19 23:27:00,
2013-06-19 19:30:00,67.5,39.2,30.18,WNW,290,0.7,4.2,35,0.00,,SCT,0.00,VWS V14.00,2013-06-19 23:30:00,
2013-06-19 19:32:00,66.0,44.1,30.19,West,270,0.0,0.0,45,0.00,,SKC,0.00,VWS V14.00,2013-06-19 23:32:00,
2013-06-19 19:38:00,65.7,45.5,30.19,West,270,0.0,0.0,48,0.00,,SKC,0.00,VWS V14.00,2013-06-19 23:38:00,
2013-06-19 19:43:00,65.4,46.1,30.20,West,270,0.0,0.0,50,0.00,,SKC,0.00,VWS V14.00,2013-06-19 23:43:00,
2013-06-19 19:48:00,65.0,48.5,30.19,West,270,0.0,0.0,55,0.00,,SKC,0.00,VWS V14.00,2013-06-19 23:48:00,
2013-06-19 19:53:00,64.6,47.2,30.19,West,270,0.0,0.0,53,0.00,,SKC,0.00,VWS V14.00,2013-06-19 23:53:00,
2013-06-19 19:58:00,64.6,47.0,30.19,West,270,0.0,0.0,53,0.00,,SKC,0.00,VWS V14.00,2013-06-19 23:58:00,
2013-06-19 20:00:00,67.3,41.8,30.19,West,270,0.0,3.0,39,0.00,,SCT,0.00,VWS V14.00,2013-06-20 00:00:00,
2013-06-19 20:03:00,64.3,48.6,30.19,West,270,0.0,0.0,57,0.00,,SKC,0.00,VWS V14.00,2013-06-20 00:03:00,
2013-06-19 20:08:00,64.2,48.7,30.19,West,270,0.0,0.0,57,0.00,,SKC,0.00,VWS V14.00,2013-06-20 00:08:00,
2013-06-19 20:13:00,63.8,47.8,30.19,West,270,0.0,0.0,56,0.00,,SKC,0.00,VWS V14.00,2013-06-20 00:13:00,
2013-06-19 20:18:00,63.6,48.6,30.19,West,270,0.0,0.0,58,0.00,,SKC,0.00,VWS V14.00,2013-06-20 00:18:00,
2013-06-19 20:23:00,63.1,49.5,30.19,West,270,0.0,0.0,61,0.00,,SKC,0.00,VWS V14.00,2013-06-20 00:23:00,
2013-06-19 20:28:00,62.3,48.2,30.19,West,270,0.0,0.0,60,0.00,,SKC,0.00,VWS V14.00,2013-06-20 00:28:00,
2013-06-19 20:30:00,66.3,44.9,30.19,West,270,0.0,0.0,46,0.00,,SCT,0.00,VWS V14.00,2013-06-20 00:30:00,
2013-06-19 20:33:00,61.7,47.9,30.19,West,270,0.0,0.0,60,0.00,,SKC,0.00,VWS V14.00,2013-06-20 00:33:00,
2013-06-19 20:38:00,61.0,47.9,30.19,West,270,0.0,0.0,62,0.00,,SKC,0.00,VWS V14.00,2013-06-20 00:38:00,
2013-06-19 20:43:00,60.5,47.9,30.19,West,270,0.0,0.0,63,0.00,,SKC,0.00,VWS V14.00,2013-06-20 00:43:00,
2013-06-19 20:48:00,59.9,47.5,30.20,West,270,0.0,0.0,64,0.00,,SKC,0.00,VWS V14.00,2013-06-20 00:48:00,
2013-06-19 20:53:00,59.4,47.4,30.20,West,270,0.0,0.0,64,0.00,,SKC,0.00,VWS V14.00,2013-06-20 00:53:00,
2013-06-19 20:58:00,58.8,47.0,30.20,West,270,0.0,0.0,65,0.00,,SKC,0.00,VWS V14.00,2013-06-20 00:58:00,
2013-06-19 21:00:00,64.6,47.5,30.19,West,270,0.0,0.0,54,0.00,,SCT,0.00,VWS V14.00,2013-06-20 01:00:00,
2013-06-19 21:03:00,58.1,47.2,30.20,West,270,0.0,0.0,67,0.00,,SKC,0.00,VWS V14.00,2013-06-20 01:03:00,
2013-06-19 21:08:00,57.4,46.3,30.20,West,270,0.0,0.0,66,0.00,,SKC,0.00,VWS V14.00,2013-06-20 01:08:00,
2013-06-19 21:13:00,56.5,45.5,30.20,West,270,0.0,0.0,66,0.00,,SKC,0.00,VWS V14.00,2013-06-20 01:13:00,
2013-06-19 21:18:00,55.9,45.5,30.21,West,270,0.0,0.0,68,0.00,,SKC,0.00,VWS V14.00,2013-06-20 01:18:00,
2013-06-19 21:23:00,55.2,45.5,30.21,West,270,0.0,0.0,70,0.00,,SKC,0.00,VWS V14.00,2013-06-20 01:23:00,
2013-06-19 21:28:00,55.0,46.0,30.21,West,270,0.0,0.0,72,0.00,,SKC,0.00,VWS V14.00,2013-06-20 01:28:00,
2013-06-19 21:30:00,62.5,48.4,30.19,West,270,0.0,0.0,60,0.00,,SCT,0.00,VWS V14.00,2013-06-20 01:30:00,
2013-06-19 21:33:00,54.7,46.4,30.21,West,270,0.0,0.0,73,0.00,,SKC,0.00,VWS V14.00,2013-06-20 01:33:00,
2013-06-19 21:38:00,54.5,46.4,30.22,West,270,0.0,0.0,74,0.00,,SKC,0.00,VWS V14.00,2013-06-20 01:38:00,
2013-06-19 21:43:00,54.2,46.3,30.22,West,270,0.0,0.0,74,0.00,,SKC,0.00,VWS V14.00,2013-06-20 01:43:00,
2013-06-19 21:48:00,53.7,46.2,30.22,West,270,0.0,0.0,76,0.00,,SKC,0.00,VWS V14.00,2013-06-20 01:48:00,
2013-06-19 21:53:00,53.5,46.5,30.22,West,270,0.0,0.0,77,0.00,,SKC,0.00,VWS V14.00,2013-06-20 01:53:00,
2013-06-19 21:58:00,53.1,46.5,30.23,West,270,0.0,0.0,78,0.00,,SKC,0.00,VWS V14.00,2013-06-20 01:58:00,
2013-06-19 22:00:00,58.9,47.0,30.20,West,270,0.0,0.0,65,0.00,,SCT,0.00,VWS V14.00,2013-06-20 02:00:00,
2013-06-19 22:03:00,53.0,46.8,30.22,West,270,0.0,0.0,79,0.00,,SKC,0.00,VWS V14.00,2013-06-20 02:03:00,
2013-06-19 22:08:00,52.6,46.7,30.23,West,270,0.0,0.0,80,0.00,,SKC,0.00,VWS V14.00,2013-06-20 02:08:00,
2013-06-19 22:13:00,52.2,46.8,30.23,West,270,0.0,0.0,82,0.00,,SKC,0.00,VWS V14.00,2013-06-20 02:13:00,
2013-06-19 22:18:00,52.0,46.8,30.23,West,270,0.0,0.0,82,0.00,,SKC,0.00,VWS V14.00,2013-06-20 02:18:00,
2013-06-19 22:23:00,51.8,46.7,30.23,West,270,0.0,0.0,83,0.00,,SKC,0.00,VWS V14.00,2013-06-20 02:23:00,
2013-06-19 22:28:00,51.7,46.7,30.23,West,270,0.0,0.0,83,0.00,,SKC,0.00,VWS V14.00,2013-06-20 02:28:00,
2013-06-19 22:30:00,55.0,45.6,30.21,West,270,0.0,0.0,71,0.00,,SCT,0.00,VWS V14.00,2013-06-20 02:30:00,
2013-06-19 22:33:00,51.2,46.3,30.23,West,270,0.0,0.0,83,0.00,,SKC,0.00,VWS V14.00,2013-06-20 02:33:00,
2013-06-19 22:38:00,51.0,46.3,30.23,West,270,0.0,0.0,84,0.00,,SKC,0.00,VWS V14.00,2013-06-20 02:38:00,
2013-06-19 22:43:00,50.8,46.3,30.23,West,270,0.0,0.0,84,0.00,,SKC,0.00,VWS V14.00,2013-06-20 02:43:00,
2013-06-19 22:48:00,50.6,46.2,30.23,West,270,0.0,0.0,85,0.00,,SKC,0.00,VWS V14.00,2013-06-20 02:48:00,
2013-06-19 22:53:00,50.4,46.5,30.23,West,263,0.0,4.4,86,0.00,,SKC,0.00,VWS V14.00,2013-06-20 02:53:00,
2013-06-19 22:58:00,50.3,46.5,30.24,West,263,0.0,0.0,87,0.00,,SKC,0.00,VWS V14.00,2013-06-20 02:58:00,
2013-06-19 23:00:00,53.2,46.5,30.22,West,270,0.0,0.0,78,0.00,,SCT,0.00,VWS V14.00,2013-06-20 03:00:00,
2013-06-19 23:03:00,50.4,46.7,30.24,West,263,0.0,0.0,87,0.00,,SKC,0.00,VWS V14.00,2013-06-20 03:03:00,
2013-06-19 23:08:00,50.4,46.7,30.24,West,263,0.0,0.0,87,0.00,,SKC,0.00,VWS V14.00,2013-06-20 03:08:00,
2013-06-19 23:30:00,51.7,46.7,30.23,West,270,0.0,0.0,83,0.00,,SCT,0.00,VWS V14.00,2013-06-20 03:30:00,
2013-06-19 23:33:00,49.6,46.2,30.25,West,263,0.0,0.0,88,0.00,,SKC,0.00,VWS V14.00,2013-06-20 03:33:00,
2013-06-19 23:38:00,49.6,46.2,30.25,West,263,0.0,0.0,88,0.00,,SKC,0.00,VWS V14.00,2013-06-20 03:38:00,